[Iaude] MPEC P30: 2024 OO2 [a=1.60,e=0.35,i=18.2,H=24.2]
    mpec at cfa.harvard.edu 
    mpec at cfa.harvard.edu
       
    Fri Aug  2 10:44:18 EDT 2024
    
    
  
M.P.E.C. 2024-P30                                Issued 2024 August 2, 14:42 UT
     The Minor Planet Electronic Circulars contain information on unusual
         minor planets, routine data on comets and natural satellites,
         and occasional editorial announcements.  They are published
    on behalf of Division F of the International Astronomical Union by the
          Minor Planet Center, Smithsonian Astrophysical Observatory,
                          Cambridge, MA 02138, U.S.A.
			  
             Prepared using the Tamkin Foundation Computer Network
                              MPC at CFA.HARVARD.EDU
            URL https://www.minorplanetcenter.net/    ISSN 1523-6714
                                    2024 OO2                                    
Observations:
     K24O02O* C2024 07 29.36474519 59 52.284-30 05 19.53         20.39wXEP030F52
     K24O02O  C2024 07 29.37002319 59 53.826-30 06 12.11         20.43wXEP030F52
     K24O02O  C2024 07 29.37534119 59 55.368-30 07 04.70         20.18wXEP030F52
     K24O02O  C2024 07 29.38063419 59 56.902-30 07 57.07         20.02wXEP030F52
     K24O02O  C2024 07 29.43556920 00 12.785-30 16 57.10         20.44GVEP030F52
     K24O02O  C2024 07 29.43622320 00 12.979-30 17 03.38         20.30GVEP030F52
     K24O02O  C2024 08 01.40238720 15 49.561-37 17 56.65         20.39wXEP030F51
     K24O02O  C2024 08 01.41215720 15 52.141-37 19 08.48         20.41wXEP030F51
     K24O02O  C2024 08 01.42193520 15 54.716-37 20 19.97         20.95wXEP030F51
     K24O02O KC2024 08 02.43965320 20 59.057-39 16 47.96         20.3 GVEP030474
     K24O02O KC2024 08 02.44224320 20 59.782-39 17 04.92         20.7 GVEP030474
     K24O02O KC2024 08 02.44742220 21 01.169-39 17 39.59         20.3 GVEP030474
     K24O02O KC2024 08 02.45001320 21 01.834-39 17 56.72         20.4 GVEP030474
Observer details:
474 Mount John Observatory, Lake Tekapo.  Observers A. C. Gilmore, P. M.
    Kilmartin.  Measurer P. M. Kilmartin.  0.6-m f/6.3 Reflector + CCD.
F51 Pan-STARRS 1, Haleakala.  Observers J. Herman, T. Lowe, P. Minguez, A.
    Schultz, I. Smith.  Measurers K. Chambers, T. de Boer, J. Fairlamb, H.
    Gao, M. Huber, C.-C. Lin, E. Magnier, Y. Ramanjooloo, R. Wainscoat, R.
    Weryk.  1.8-m Ritchey-Chretien + CCD.
F52 Pan-STARRS 2, Haleakala.  Observers J. Herman, T. Lowe, P. Minguez, A.
    Schultz, I. Smith.  Measurers K. Chambers, T. de Boer, J. Fairlamb, H.
    Gao, M. Huber, C.-C. Lin, E. Magnier, Y. Ramanjooloo, R. Wainscoat, R.
    Weryk.  1.8-m Ritchey-Chretien + CCD.
Orbital elements:
2024 OO2                                                 Earth MOID = 0.0794 AU
Epoch 2024 Oct. 17.0 TT = JDT 2460600.5                 MPC                     
M  57.53564              (2000.0)            P               Q                  
n   0.48475836     Peri.  142.63463     -0.05212021     +0.96370057             
a   1.6049167      Node   122.91822     -0.97492449     +0.00770213             
e   0.3483026      Incl.   18.17557     -0.21634632     -0.26687428             
P   2.03           H   24.22          G   0.15           U   8                  
Residuals in seconds of arc
240729 F52  0.0   0.0     240729 F52  0.1-  0.1+    240802 474  0.1+  0.1+
240729 F52  0.1+  0.1-    240801 F51  0.1+  0.2+    240802 474  0.2+  0.0
240729 F52  0.0   0.0     240801 F51  0.0   0.1-    240802 474  0.1-  0.1+
240729 F52  0.0   0.1+    240801 F51  0.1-  0.1-
240729 F52  0.2-  0.0     240802 474  0.3-  0.2-
Ephemeris:
2024 OO2                 a,e,i = 1.60, 0.35, 18                  q = 1.0459
Date    TT    R. A. (2000) Decl.     Delta      r    Elong.  Phase     V
2024 07 03    17 20 15.1 +52 50 17   0.1373  1.0534   101.8    70.9    22.5
...
2024 07 18    18 50 35.5 +14 36 27   0.08099 1.0808   141.5    35.8    20.4
...
2024 07 26    19 40 37.4 -19 21 21   0.08830 1.1028   170.3     9.0    19.8
...
2024 08 01    20 13 46.6 -36 26 40   0.1131  1.1221   160.3    17.7    20.7
2024 08 02    20 18 47.5 -38 27 31   0.1182  1.1255   158.3    19.5    20.8
2024 08 03    20 23 39.2 -40 16 36   0.1236  1.1290   156.4    21.1    21.0
...
2024 08 09    20 49 34.6 -47 57 32   0.1592  1.1512   147.4    28.3    21.8
...
2024 08 17    21 16 11.1 -52 48 59   0.2126  1.1835   140.2    33.2    22.6
...
2024 09 01    21 48 33.2 -54 39 59   0.3236  1.2506   132.5    36.5    23.7
A. U. Tomatic                (C) Copyright 2024 MPC           M.P.E.C. 2024-P30
    
    
More information about the Iaude
mailing list